Location: Dresden
(51.0500°N, 13.7500°E)
Time: 16:28:52
(UTC+00:00)

ISS - Pass Details

Date: 25 March 2019
Orbit: 408 x 410 km, 51.6° (Epoch: 27 April)

Event Time Altitude Azimuth Distance (km) Brightness Sun altitude
Rises 19:12:25 0° 251° (WSW) 2,333 0.7 -16.9°
Reaches altitude 10° 19:14:30 10° 249° (WSW) 1,473 -0.4 -17.2°
Maximum altitude 19:17:48 76° 164° (SSE) 427 -3.9 -17.7°
Enters shadow 19:18:17 59° 100° (E) 477 -3.9 -17.8°
